| time (UTC) | temp F | wind direction | speed MPH | gust MPH | rain 1hr in | rain 24hr in | rain mn in | humidity % | barometer mb |
| 20260902090157 | 58 | 175 | 0.0 | 0.0 | 0.00 | 0.00 | 0.00 | 100 | 1008.8 |
| 20260902085645 | 58 | 175 | 0.0 | 0.0 | 0.00 | 0.00 | 0.00 | 100 | 1008.9 |
| 20260902085141 | 58 | 175 | 0.0 | 0.0 | 0.00 | 0.00 | 0.00 | 100 | 1008.9 |
| 20260902084630 | 59 | 175 | 0.0 | 0.0 | 0.00 | 0.00 | 0.00 | 100 | 1009.0 |
| 20260902084130 | 59 | 175 | 0.0 | 0.0 | 0.00 | 0.00 | 0.00 | 100 | 1009.0 |
| 20260902083630 | 59 | 175 | 0.0 | 0.0 | 0.00 | 0.00 | 0.00 | 100 | 1009.1 |
| 20260902083130 | 59 | 175 | 0.0 | 0.0 | 0.00 | 0.00 | 0.00 | 100 | 1009.1 |
| 20260902082629 | 59 | 175 | 0.0 | 0.0 | 0.00 | 0.00 | 0.00 | 100 | 1009.1 |
| 20260902081631 | 60 | 175 | 0.0 | 0.0 | 0.00 | 0.00 | 0.00 | 100 | 1009.1 |
| 20260902081130 | 60 | 175 | 0.0 | 0.0 | 0.00 | 0.00 | 0.00 | 100 | 1009.1 |
| 20260902080629 | 60 | 175 | 0.0 | 0.0 | 0.00 | 0.00 | 0.00 | 100 | 1009.1 |
| 20260902080131 | 60 | 175 | 0.0 | 0.0 | 0.00 | 0.00 | 0.00 | 100 | 1009.1 |
| 20260902075125 | 61 | 175 | 0.0 | 0.0 | 0.00 | 0.00 | 0.00 | 100 | 1009.1 |
| 20260902074608 | 61 | 175 | 0.0 | 0.0 | 0.00 | 0.00 | 0.00 | 100 | 1009.1 |
| 20260902074101 | 61 | 175 | 0.0 | 0.0 | 0.00 | 0.00 | 0.00 | 100 | 1009.1 |
| 20260902073601 | 61 | 175 | 0.0 | 0.0 | 0.00 | 0.00 | 0.00 | 100 | 1009.1 |
| 20260902073100 | 61 | 175 | 0.0 | 0.0 | 0.00 | 0.00 | 0.00 | 100 | 1009.2 |
| 20260902072102 | 62 | 175 | 0.0 | 0.0 | 0.00 | 0.00 | 0.00 | 100 | 1009.2 |
| 20260902071603 | 62 | 175 | 0.0 | 0.0 | 0.00 | 0.00 | 0.00 | 100 | 1009.3 |
| 20260902071103 | 62 | 175 | 0.0 | 0.0 | 0.00 | 0.00 | 0.00 | 100 | 1009.4 |
| 20260902070603 | 62 | 175 | 0.0 | 0.0 | 0.00 | 0.00 | 0.00 | 100 | 1009.4 |
| 20260902070045 | 62 | 175 | 0.0 | 0.0 | 0.00 | 0.00 | 0.00 | 100 | 1009.6 |
| 20260902065545 | 62 | 171 | 0.0 | 0.0 | 0.00 | 0.00 | 0.00 | 100 | 1009.6 |
| 20260902065037 | 62 | 178 | 0.0 | 0.0 | 0.00 | 0.00 | 0.00 | 100 | 1009.6 |
| 20260902064536 | 62 | 107 | 0.0 | 0.0 | 0.00 | 0.00 | 0.00 | 100 | 1009.6 |
| 20260902064037 | 62 | 107 | 0.0 | 0.0 | 0.00 | 0.00 | 0.00 | 100 | 1009.6 |
| 20260902063032 | 62 | 107 | 0.0 | 0.0 | 0.00 | 0.00 | 0.00 | 100 | 1009.6 |
| 20260902062531 | 62 | 190 | 0.0 | 0.0 | 0.00 | 0.00 | 0.00 | 100 | 1009.6 |
| 20260902062030 | 62 | 190 | 0.0 | 0.0 | 0.00 | 0.00 | 0.00 | 100 | 1009.6 |
| 20260902061529 | 62 | 190 | 0.0 | 0.0 | 0.00 | 0.00 | 0.00 | 100 | 1009.6 |
| 20260902060531 | 62 | 194 | 0.0 | 0.0 | 0.00 | 0.00 | 0.00 | 100 | 1009.5 |
| 20260902060030 | 62 | 194 | 0.0 | 0.0 | 0.00 | 0.00 | 0.00 | 100 | 1009.6 |
| 20260902055530 | 62 | 194 | 0.0 | 0.0 | 0.00 | 0.00 | 0.00 | 100 | 1009.7 |
| 20260902055032 | 62 | 194 | 0.0 | 0.0 | 0.00 | 0.00 | 0.00 | 100 | 1009.7 |
| 20260902054531 | 62 | 194 | 0.0 | 0.0 | 0.00 | 0.00 | 0.00 | 100 | 1009.7 |
| 20260902054016 | 62 | 194 | 0.0 | 0.0 | 0.00 | 0.00 | 0.00 | 100 | 1009.7 |
| 20260902053004 | 62 | 194 | 0.0 | 0.0 | 0.00 | 0.00 | 0.00 | 100 | 1009.8 |
| 20260902052503 | 62 | 194 | 0.0 | 0.0 | 0.00 | 0.00 | 0.00 | 100 | 1009.8 |
| 20260902051441 | 63 | 194 | 0.0 | 0.0 | 0.00 | 0.00 | 0.00 | 100 | 1009.7 |
| 20260902050932 | 63 | 194 | 0.0 | 0.0 | 0.00 | 0.00 | 0.00 | 100 | 1009.8 |
| 20260902050431 | 63 | 194 | 0.0 | 0.0 | 0.00 | 0.00 | 0.00 | 100 | 1009.8 |
| 20260902045930 | 63 | 194 | 0.0 | 0.0 | 0.00 | 0.00 | 0.00 | 100 | 1009.9 |
| 20260902044930 | 63 | 194 | 0.0 | 0.0 | 0.00 | 0.00 | 0.00 | 100 | 1010.0 |
| 20260902044435 | 63 | 194 | 0.0 | 0.0 | 0.00 | 0.00 | 0.00 | 100 | 1010.0 |
| 20260902043930 | 63 | 194 | 0.0 | 0.0 | 0.00 | 0.00 | 0.00 | 100 | 1010.0 |
| 20260902042930 | 63 | 194 | 0.0 | 0.0 | 0.00 | 0.00 | 0.00 | 100 | 1010.0 |
| 20260902041931 | 63 | 194 | 0.0 | 0.0 | 0.00 | 0.00 | 0.00 | 1 | 1010.0 |
| 20260902041431 | 63 | 194 | 0.0 | 0.0 | 0.00 | 0.00 | 0.00 | 2 | 1010.0 |
| 20260902040932 | 63 | 194 | 0.0 | 0.0 | 0.00 | 0.00 | 0.00 | 3 | 1010.0 |
| 20260902035412 | 64 | 194 | 0.0 | 0.0 | 0.00 | 0.00 | 0.00 | 6 | 1009.9 |
| 20260902034913 | 64 | 194 | 0.0 | 0.0 | 0.00 | 0.00 | 0.00 | 8 | 1009.9 |
| 20260902033912 | 64 | 194 | 0.0 | 0.0 | 0.00 | 0.00 | 0.00 | 12 | 1009.8 |
| 20260902032403 | 65 | 194 | 0.0 | 0.0 | 0.00 | 0.00 | 0.00 | 15 | 1009.7 |
| 20260902031404 | 65 | 194 | 0.0 | 0.0 | 0.00 | 0.00 | 0.00 | 16 | 1009.7 |
| 20260902030904 | 65 | 194 | 0.0 | 0.0 | 0.00 | 0.00 | 0.00 | 17 | 1009.7 |
| 20260902030402 | 65 | 194 | 0.0 | 0.0 | 0.00 | 0.00 | 0.00 | 17 | 1009.7 |
| 20260902025901 | 65 | 194 | 0.0 | 0.0 | 0.00 | 0.00 | 0.00 | 17 | 1009.6 |
| 20260902025402 | 65 | 173 | 0.0 | 0.0 | 0.00 | 0.00 | 0.00 | 17 | 1009.6 |
| 20260902024905 | 65 | 257 | 0.0 | 0.0 | 0.00 | 0.00 | 0.00 | 13 | 1009.6 |
| 20260902024402 | 65 | 261 | 0.0 | 0.0 | 0.00 | 0.00 | 0.00 | 9 | 1009.6 |
| 20260902023404 | 66 | 270 | 0.0 | 0.0 | 0.00 | 0.00 | 0.00 | 100 | 1009.6 |
| 20260902022903 | 66 | 270 | 0.0 | 0.0 | 0.00 | 0.00 | 0.00 | 100 | 1009.6 |
| 20260902022404 | 66 | 270 | 0.0 | 0.0 | 0.00 | 0.00 | 0.00 | 1 | 1009.6 |
| 20260902021403 | 66 | 270 | 0.0 | 0.0 | 0.00 | 0.00 | 0.00 | 2 | 1009.6 |
| 20260902020904 | 66 | 270 | 0.0 | 0.0 | 0.00 | 0.00 | 0.00 | 4 | 1009.5 |
| 20260902015904 | 67 | 265 | 0.0 | 0.0 | 0.00 | 0.00 | 0.00 | 8 | 1009.5 |
| 20260902015401 | 67 | 265 | 0.0 | 0.0 | 0.00 | 0.00 | 0.00 | 9 | 1009.5 |
| 20260902014901 | 67 | 265 | 0.0 | 0.0 | 0.00 | 0.00 | 0.00 | 9 | 1009.5 |
| 20260902014403 | 67 | 265 | 0.0 | 0.0 | 0.00 | 0.00 | 0.00 | 9 | 1009.4 |
| 20260902013902 | 67 | 265 | 0.0 | 0.0 | 0.00 | 0.00 | 0.00 | 9 | 1009.4 |
| 20260902013402 | 67 | 265 | 0.0 | 0.0 | 0.00 | 0.00 | 0.00 | 10 | 1009.3 |
| 20260902012903 | 67 | 265 | 0.0 | 0.0 | 0.00 | 0.00 | 0.00 | 11 | 1009.3 |
| 20260902011857 | 67 | 265 | 0.0 | 0.0 | 0.00 | 0.00 | 0.00 | 11 | 1009.3 |
| 20260902011353 | 67 | 265 | 0.0 | 0.0 | 0.00 | 0.00 | 0.00 | 11 | 1009.3 |
| 20260902010333 | 67 | 194 | 0.0 | 0.0 | 0.00 | 0.00 | 0.00 | 14 | 1009.4 |
| 20260902004830 | 67 | 190 | 2.0 | 10.0 | 0.00 | 0.00 | 0.00 | 24 | 1009.2 |
| 20260902004330 | 67 | 186 | 1.0 | 10.0 | 0.00 | 0.00 | 0.00 | 26 | 1009.3 |
| 20260902003831 | 68 | 175 | 1.0 | 8.0 | 0.00 | 0.00 | 0.00 | 27 | 1009.2 |
| 20260902002830 | 68 | 200 | 1.0 | 13.0 | 0.00 | 0.00 | 0.00 | 30 | 1009.2 |
| 20260902002330 | 69 | 184 | 0.0 | 8.0 | 0.00 | 0.00 | 0.00 | 29 | 1009.1 |
| 20260902001830 | 69 | 184 | 0.0 | 8.0 | 0.00 | 0.00 | 0.00 | 29 | 1009.2 |
| 20260902000830 | 68 | 185 | 0.0 | 0.0 | 0.00 | 0.00 | 0.00 | 29 | 1009.1 |
| 20260902000330 | 68 | 185 | 0.0 | 0.0 | 0.00 | 0.00 | 0.00 | 28 | 1009.1 |
| 20260901235830 | 68 | 191 | 0.0 | 7.0 | 0.00 | 0.00 | 0.00 | 28 | 1009.0 |
| 20260901234829 | 68 | 189 | 2.0 | 9.0 | 0.00 | 0.00 | 0.00 | 25 | 1009.2 |
| 20260901234328 | 68 | 180 | 4.0 | 11.0 | 0.00 | 0.00 | 0.00 | 25 | 1009.2 |
| 20260901233832 | 68 | 196 | 3.0 | 11.0 | 0.00 | 0.00 | 0.00 | 28 | 1009.2 |
| 20260901233331 | 68 | 188 | 2.0 | 9.0 | 0.00 | 0.00 | 0.00 | 29 | 1009.2 |
| 20260901232831 | 68 | 190 | 4.0 | 11.0 | 0.00 | 0.00 | 0.00 | 29 | 1009.2 |
| 20260901232330 | 69 | 191 | 3.0 | 11.0 | 0.00 | 0.00 | 0.00 | 28 | 1009.2 |
| 20260901231831 | 69 | 187 | 2.0 | 10.0 | 0.00 | 0.00 | 0.00 | 27 | 1009.2 |
| 20260901231330 | 69 | 188 | 3.0 | 10.0 | 0.00 | 0.00 | 0.00 | 27 | 1009.2 |
| 20260901230829 | 68 | 188 | 2.0 | 8.0 | 0.00 | 0.00 | 0.00 | 23 | 1009.3 |
| 20260901224830 | 67 | 186 | 4.0 | 10.0 | 0.00 | 0.00 | 0.00 | 22 | 1009.4 |
| 20260901224330 | 68 | 169 | 4.0 | 10.0 | 0.00 | 0.00 | 0.00 | 23 | 1009.5 |
| 20260901223830 | 68 | 190 | 4.0 | 9.0 | 0.00 | 0.00 | 0.00 | 24 | 1009.5 |
| 20260901223330 | 68 | 194 | 2.0 | 9.0 | 0.00 | 0.00 | 0.00 | 25 | 1009.5 |
| 20260901222831 | 68 | 190 | 1.0 | 9.0 | 0.00 | 0.00 | 0.00 | 25 | 1009.5 |
| 20260901222329 | 68 | 186 | 0.0 | 9.0 | 0.00 | 0.00 | 0.00 | 25 | 1009.4 |
| 20260901221829 | 69 | 191 | 0.0 | 0.0 | 0.00 | 0.00 | 0.00 | 24 | 1009.4 |
| 20260901220830 | 69 | 190 | 0.0 | 0.0 | 0.00 | 0.00 | 0.00 | 22 | 1009.4 |
| 20260901220330 | 69 | 190 | 1.0 | 5.0 | 0.00 | 0.00 | 0.00 | 20 | 1009.4 |
| 20260901215831 | 68 | 190 | 2.0 | 6.0 | 0.00 | 0.00 | 0.00 | 21 | 1009.4 |
| 20260901214832 | 68 | 186 | 0.0 | 7.0 | 0.00 | 0.00 | 0.00 | 16 | 1009.4 |
| 20260901213832 | 67 | 181 | 0.0 | 0.0 | 0.00 | 0.00 | 0.00 | 15 | 1009.4 |
| 20260901213330 | 67 | 181 | 0.0 | 0.0 | 0.00 | 0.00 | 0.00 | 14 | 1009.4 |
| 20260901212830 | 66 | 181 | 0.0 | 0.0 | 0.00 | 0.00 | 0.00 | 15 | 1009.5 |
| 20260901212331 | 66 | 181 | 0.0 | 0.0 | 0.00 | 0.00 | 0.00 | 14 | 1009.5 |
| 20260901211830 | 66 | 181 | 0.0 | 1.0 | 0.00 | 0.00 | 0.00 | 14 | 1009.5 |
| 20260901211330 | 66 | 181 | 1.0 | 5.0 | 0.00 | 0.00 | 0.00 | 14 | 1009.6 |
| 20260901210829 | 66 | 181 | 2.0 | 7.0 | 0.00 | 0.00 | 0.00 | 13 | 1009.6 |
| 20260901210328 | 66 | 181 | 2.0 | 8.0 | 0.00 | 0.00 | 0.00 | 14 | 1009.6 |
| 20260901205831 | 66 | 180 | 2.0 | 8.0 | 0.00 | 0.00 | 0.00 | 14 | 1009.5 |
| 20260901205328 | 67 | 175 | 2.0 | 8.0 | 0.00 | 0.00 | 0.00 | 15 | 1009.6 |
| 20260901204331 | 67 | 184 | 1.0 | 7.0 | 0.00 | 0.00 | 0.00 | 13 | 1009.7 |
| 20260901203830 | 67 | 184 | 0.0 | 0.0 | 0.00 | 0.00 | 0.00 | 12 | 1009.7 |
| 20260901202830 | 67 | 193 | 0.0 | 0.0 | 0.00 | 0.00 | 0.00 | 11 | 1009.7 |
| 20260901201831 | 67 | 194 | 0.0 | 0.0 | 0.00 | 0.00 | 0.00 | 15 | 1009.7 |
| 20260901201332 | 67 | 194 | 0.0 | 0.0 | 0.00 | 0.00 | 0.00 | 12 | 1009.7 |
| 20260901200830 | 67 | 192 | 0.0 | 0.0 | 0.00 | 0.00 | 0.00 | 16 | 1009.7 |
| 20260901200330 | 67 | 192 | 0.0 | 3.0 | 0.00 | 0.00 | 0.00 | 14 | 1009.7 |
| 20260901195831 | 67 | 192 | 0.0 | 5.0 | 0.00 | 0.00 | 0.00 | 15 | 1009.7 |
| 20260901194328 | 68 | 192 | 0.0 | 0.0 | 0.00 | 0.00 | 0.00 | 9 | 1009.7 |
| 20260901193832 | 68 | 192 | 0.0 | 6.0 | 0.00 | 0.00 | 0.00 | 5 | 1009.8 |
| 20260901192830 | 67 | 192 | 0.0 | 4.0 | 0.00 | 0.00 | 0.00 | 5 | 1009.8 |
| 20260901192328 | 67 | 192 | 0.0 | 0.0 | 0.00 | 0.00 | 0.00 | 3 | 1009.9 |
| 20260901191831 | 67 | 192 | 0.0 | 0.0 | 0.00 | 0.00 | 0.00 | 2 | 1010.0 |
| 20260901191330 | 67 | 135 | 0.0 | 0.0 | 0.00 | 0.00 | 0.00 | 4 | 1010.1 |
| 20260901190828 | 68 | 188 | 0.0 | 0.0 | 0.00 | 0.00 | 0.00 | 4 | 1010.1 |
| 20260901190329 | 68 | 130 | 0.0 | 0.0 | 0.00 | 0.00 | 0.00 | 1 | 1010.1 |
| 20260901185832 | 68 | 180 | 0.0 | 0.0 | 0.00 | 0.00 | 0.00 | 100 | 1010.2 |
| 20260901185331 | 68 | 188 | 0.0 | 0.0 | 0.00 | 0.00 | 0.00 | 100 | 1010.1 |
| 20260901184830 | 67 | 129 | 0.0 | 0.0 | 0.00 | 0.00 | 0.00 | 100 | 1010.2 |
| 20260901184331 | 66 | 193 | 0.0 | 0.0 | 0.00 | 0.00 | 0.00 | 100 | 1010.3 |
| 20260901183331 | 65 | 122 | 0.0 | 0.0 | 0.00 | 0.00 | 0.00 | 100 | 1010.4 |
| 20260901182829 | 65 | 192 | 0.0 | 0.0 | 0.00 | 0.00 | 0.00 | 100 | 1010.3 |
| 20260901182331 | 64 | 196 | 0.0 | 0.0 | 0.00 | 0.00 | 0.00 | 100 | 1010.4 |
| 20260901181829 | 64 | 187 | 0.0 | 0.0 | 0.00 | 0.00 | 0.00 | 100 | 1010.4 |
| 20260901181331 | 64 | 175 | 0.0 | 0.0 | 0.00 | 0.00 | 0.00 | 100 | 1010.4 |
| 20260901180331 | 63 | 150 | 0.0 | 0.0 | 0.00 | 0.00 | 0.00 | 100 | 1010.4 |
| 20260901175829 | 63 | 150 | 0.0 | 0.0 | 0.00 | 0.00 | 0.00 | 100 | 1010.4 |
| 20260901175331 | 62 | 150 | 0.0 | 0.0 | 0.00 | 0.00 | 0.00 | 100 | 1010.4 |
| 20260901174831 | 62 | 149 | 0.0 | 0.0 | 0.00 | 0.00 | 0.00 | 100 | 1010.4 |
| 20260901174331 | 61 | 149 | 0.0 | 0.0 | 0.00 | 0.00 | 0.00 | 100 | 1010.4 |
| 20260901173329 | 61 | 149 | 0.0 | 0.0 | 0.00 | 0.00 | 0.00 | 100 | 1010.5 |
| 20260901172829 | 61 | 149 | 0.0 | 0.0 | 0.00 | 0.00 | 0.00 | 100 | 1010.4 |
| 20260901172330 | 61 | 149 | 0.0 | 0.0 | 0.00 | 0.00 | 0.00 | 100 | 1010.4 |
| 20260901171830 | 60 | 149 | 0.0 | 0.0 | 0.00 | 0.00 | 0.00 | 100 | 1010.4 |
| 20260901171329 | 60 | 149 | 0.0 | 0.0 | 0.00 | 0.00 | 0.00 | 100 | 1010.4 |
| 20260901170816 | 60 | 149 | 0.0 | 0.0 | 0.00 | 0.00 | 0.00 | 100 | 1010.3 |
| 20260901165306 | 59 | 149 | 0.0 | 0.0 | 0.00 | 0.00 | 0.00 | 100 | 1010.3 |
| 20260901164803 | 59 | 149 | 0.0 | 0.0 | 0.00 | 0.00 | 0.00 | 100 | 1010.3 |
| 20260901164303 | 59 | 149 | 0.0 | 0.0 | 0.00 | 0.00 | 0.00 | 100 | 1010.3 |
| 20260901163803 | 59 | 149 | 0.0 | 0.0 | 0.00 | 0.00 | 0.00 | 100 | 1010.4 |
| 20260901163302 | 59 | 149 | 0.0 | 0.0 | 0.00 | 0.00 | 0.00 | 100 | 1010.4 |
| 20260901162802 | 59 | 149 | 0.0 | 0.0 | 0.00 | 0.00 | 0.00 | 100 | 1010.4 |
| 20260901161803 | 58 | 149 | 0.0 | 0.0 | 0.00 | 0.00 | 0.00 | 100 | 1010.5 |
| 20260901161303 | 58 | 149 | 0.0 | 0.0 | 0.00 | 0.00 | 0.00 | 100 | 1010.5 |
| 20260901160804 | 58 | 149 | 0.0 | 0.0 | 0.00 | 0.00 | 0.00 | 100 | 1010.4 |
| 20260901160300 | 58 | 149 | 0.0 | 0.0 | 0.00 | 0.00 | 0.00 | 100 | 1010.4 |
| 20260901155248 | 58 | 149 | 0.0 | 0.0 | 0.00 | 0.00 | 0.00 | 100 | 1010.5 |
| 20260901154749 | 58 | 149 | 0.0 | 0.0 | 0.00 | 0.00 | 0.00 | 100 | 1010.5 |
| 20260901154229 | 58 | 149 | 0.0 | 0.0 | 0.00 | 0.00 | 0.00 | 100 | 1010.5 |
| 20260901153730 | 58 | 149 | 0.0 | 0.0 | 0.00 | 0.00 | 0.00 | 100 | 1010.5 |
| 20260901153230 | 57 | 149 | 0.0 | 0.0 | 0.00 | 0.00 | 0.00 | 100 | 1010.4 |
| 20260901152730 | 57 | 149 | 0.0 | 0.0 | 0.00 | 0.00 | 0.00 | 100 | 1010.5 |
| 20260901152229 | 57 | 149 | 0.0 | 0.0 | 0.00 | 0.00 | 0.00 | 100 | 1010.5 |
| 20260901150731 | 57 | 149 | 0.0 | 0.0 | 0.00 | 0.00 | 0.00 | 100 | 1010.4 |
| 20260901150230 | 57 | 149 | 0.0 | 0.0 | 0.00 | 0.00 | 0.00 | 100 | 1010.3 |
| 20260901145730 | 57 | 149 | 0.0 | 0.0 | 0.00 | 0.00 | 0.00 | 100 | 1010.2 |
| 20260901145230 | 57 | 149 | 0.0 | 0.0 | 0.00 | 0.00 | 0.00 | 100 | 1010.2 |
| 20260901143729 | 57 | 149 | 0.0 | 0.0 | 0.00 | 0.00 | 0.00 | 100 | 1010.1 |
| 20260901143231 | 57 | 149 | 0.0 | 0.0 | 0.00 | 0.00 | 0.00 | 100 | 1010.1 |
| 20260901142730 | 57 | 149 | 0.0 | 0.0 | 0.00 | 0.00 | 0.00 | 100 | 1010.1 |
| 20260901141730 | 56 | 149 | 0.0 | 0.0 | 0.00 | 0.00 | 0.00 | 100 | 1010.0 |
| 20260901141231 | 56 | 149 | 0.0 | 0.0 | 0.00 | 0.00 | 0.00 | 100 | 1009.9 |
| 20260901140730 | 56 | 149 | 0.0 | 0.0 | 0.00 | 0.00 | 0.00 | 100 | 1010.0 |
| 20260901140230 | 56 | 149 | 0.0 | 0.0 | 0.00 | 0.00 | 0.00 | 100 | 1009.9 |
| 20260901135730 | 56 | 149 | 0.0 | 0.0 | 0.00 | 0.00 | 0.00 | 100 | 1009.9 |
| 20260901135231 | 56 | 149 | 0.0 | 0.0 | 0.00 | 0.00 | 0.00 | 100 | 1009.9 |
| 20260901134732 | 56 | 149 | 0.0 | 0.0 | 0.00 | 0.00 | 0.00 | 100 | 1009.9 |
| 20260901134231 | 56 | 150 | 0.0 | 0.0 | 0.00 | 0.00 | 0.00 | 100 | 1009.8 |
| 20260901133731 | 56 | 101 | 0.0 | 0.0 | 0.00 | 0.00 | 0.00 | 100 | 1009.8 |
| 20260901133228 | 56 | 118 | 0.0 | 0.0 | 0.00 | 0.00 | 0.00 | 100 | 1009.8 |
| 20260901132729 | 56 | 118 | 0.0 | 0.0 | 0.00 | 0.00 | 0.00 | 100 | 1009.8 |
| 20260901132229 | 56 | 118 | 0.0 | 0.0 | 0.00 | 0.00 | 0.00 | 100 | 1009.8 |
| 20260901131228 | 56 | 118 | 0.0 | 0.0 | 0.00 | 0.00 | 0.00 | 100 | 1009.7 |
| 20260901130732 | 56 | 118 | 0.0 | 0.0 | 0.00 | 0.00 | 0.00 | 100 | 1009.7 |
| 20260901130223 | 56 | 118 | 0.0 | 0.0 | 0.00 | 0.00 | 0.00 | 100 | 1009.7 |
| 20260901125716 | 56 | 118 | 0.0 | 0.0 | 0.00 | 0.00 | 0.00 | 100 | 1009.6 |
| 20260901125208 | 56 | 118 | 0.0 | 0.0 | 0.00 | 0.00 | 0.00 | 100 | 1009.6 |
| 20260901124204 | 56 | 118 | 0.0 | 0.0 | 0.00 | 0.00 | 0.00 | 100 | 1009.5 |
| 20260901122702 | 56 | 118 | 0.0 | 0.0 | 0.00 | 0.00 | 0.00 | 100 | 1009.6 |
| 20260901122201 | 56 | 118 | 0.0 | 0.0 | 0.00 | 0.00 | 0.00 | 100 | 1009.6 |
| 20260901121701 | 55 | 118 | 0.0 | 0.0 | 0.00 | 0.00 | 0.00 | 100 | 1009.5 |
| 20260901121201 | 55 | 118 | 0.0 | 0.0 | 0.00 | 0.00 | 0.00 | 100 | 1009.5 |
| 20260901120702 | 55 | 118 | 0.0 | 0.0 | 0.00 | 0.00 | 0.00 | 100 | 1009.5 |
| 20260901115203 | 55 | 118 | 0.0 | 0.0 | 0.00 | 0.00 | 0.00 | 100 | 1009.4 |
| 20260901114703 | 55 | 118 | 0.0 | 0.0 | 0.00 | 0.00 | 0.00 | 100 | 1009.4 |
| 20260901114201 | 55 | 118 | 0.0 | 0.0 | 0.00 | 0.00 | 0.00 | 100 | 1009.5 |
| 20260901113703 | 55 | 118 | 0.0 | 0.0 | 0.00 | 0.00 | 0.00 | 100 | 1009.5 |
| 20260901113202 | 55 | 118 | 0.0 | 0.0 | 0.00 | 0.00 | 0.00 | 100 | 1009.5 |
| 20260901112702 | 55 | 118 | 0.0 | 0.0 | 0.00 | 0.00 | 0.00 | 100 | 1009.5 |
| 20260901112201 | 56 | 118 | 0.0 | 0.0 | 0.00 | 0.00 | 0.00 | 100 | 1009.4 |
| 20260901111702 | 56 | 118 | 0.0 | 0.0 | 0.00 | 0.00 | 0.00 | 100 | 1009.4 |
| 20260901111204 | 56 | 118 | 0.0 | 0.0 | 0.00 | 0.00 | 0.00 | 100 | 1009.3 |
| 20260901110703 | 56 | 118 | 0.0 | 0.0 | 0.00 | 0.00 | 0.00 | 100 | 1009.2 |
| 20260901110203 | 56 | 118 | 0.0 | 0.0 | 0.00 | 0.00 | 0.00 | 100 | 1009.2 |
| 20260901105702 | 56 | 118 | 0.0 | 0.0 | 0.00 | 0.00 | 0.00 | 100 | 1009.1 |
| 20260901105202 | 56 | 118 | 0.0 | 0.0 | 0.00 | 0.00 | 0.00 | 100 | 1009.1 |
| 20260901104204 | 56 | 118 | 0.0 | 0.0 | 0.00 | 0.00 | 0.00 | 100 | 1009.1 |
| 20260901103702 | 56 | 118 | 0.0 | 0.0 | 0.00 | 0.00 | 0.00 | 100 | 1009.0 |
| 20260901102701 | 57 | 118 | 0.0 | 0.0 | 0.00 | 0.00 | 0.00 | 100 | 1009.0 |
| 20260901102202 | 57 | 118 | 0.0 | 0.0 | 0.00 | 0.00 | 0.00 | 100 | 1009.1 |
| 20260901101702 | 57 | 118 | 0.0 | 0.0 | 0.00 | 0.00 | 0.00 | 100 | 1009.1 |
| 20260901101204 | 57 | 118 | 0.0 | 0.0 | 0.00 | 0.00 | 0.00 | 100 | 1009.0 |
| 20260901100703 | 57 | 118 | 0.0 | 0.0 | 0.00 | 0.00 | 0.00 | 100 | 1009.0 |
| 20260901100203 | 57 | 118 | 0.0 | 0.0 | 0.00 | 0.00 | 0.00 | 100 | 1009.0 |
| 20260901095701 | 57 | 118 | 0.0 | 0.0 | 0.00 | 0.00 | 0.00 | 100 | 1009.0 |
| 20260901095203 | 57 | 118 | 0.0 | 0.0 | 0.00 | 0.00 | 0.00 | 100 | 1009.0 |
| 20260901094204 | 58 | 118 | 0.0 | 0.0 | 0.00 | 0.00 | 0.00 | 100 | 1008.9 |
| 20260901093703 | 58 | 118 | 0.0 | 0.0 | 0.00 | 0.00 | 0.00 | 100 | 1008.9 |
| 20260901093202 | 58 | 118 | 0.0 | 0.0 | 0.00 | 0.00 | 0.00 | 100 | 1008.8 |
| 20260901092703 | 58 | 118 | 0.0 | 0.0 | 0.00 | 0.00 | 0.00 | 100 | 1008.8 |
| 20260901092202 | 58 | 118 | 0.0 | 0.0 | 0.00 | 0.00 | 0.00 | 100 | 1008.7 |
| 20260901091702 | 58 | 118 | 0.0 | 0.0 | 0.00 | 0.00 | 0.00 | 100 | 1008.6 |
| 20260901091202 | 58 | 118 | 0.0 | 0.0 | 0.00 | 0.00 | 0.00 | 100 | 1008.5 |